sat.trackr.live / text

‹ back to catalog

HORUS 2

NORAD 55844 · 2023-032A

PAYLOAD ACTIVE UNKNOWN

§ Identity

Operator
Country
EGYP
Launch date
2023-03-13
Launch site
JSC
Launch vehicle
Mass (kg)
RCS (m²)

External: N2YO · Heavens-Above · Gunter

§ Orbital elements

Epoch: 2026-09-21T22:34:33.210624Z

Period
94.53 min
Inclination
97.3459°
Eccentricity
0.0001457
Mean motion
15.23299768 rev/d
Perigee alt
494.9 km
Apogee alt
496.9 km
Semi-major
6,874.0 km
B*
1.4061e-4
RAAN
338.3554°
Arg perigee
98.9777°
Mean anomaly
261.1625°
Rev number
19,621

§ Raw data

HORUS 21 55844U 23032A   26264.94066216  .00003266  00000+0  14061-3 0  99912 55844  97.3459 338.3554 0001457  98.9777 261.1625 15.23299768196214

JSON: /api/v1/satellites/55844 · /tle

For live sub-satellite position, see the globe view (requires WebGL).

§ Visibility from observer

Set your observer location to see the next 7 days of passes ≥ 10°. The values pass through the URL so the page stays shareable.

No JS? Fill the form by hand. The geolocation button needs JavaScript.

§ Radio — SatNOGS DB

ModeDescriptionDownlinkUplink
FM S-band telemetry 2.262 GHz

1 transmitter · refreshed weekly from db.satnogs.org